COSMOS 1275 DEB, 13814

Orbit data source: Space-Track

COSMOS 1275 DEB, 13814 is space debris in LEO originally from a launch on Thu, 04 Jun 1981 UTC launched from the Plesetsk Missile And Space Complex (PKMTR). Debris objects in space refer to the collection of defunct objects orbiting the Earth. Examples of debris include non-operational satellites, rocket bodies, and fragments generated from explosions, collisions, or faulty payload assembly.

Loading next visibility...
Identifier
13814, 1981-053HJ
Orbit
LEO
Country
Flag of CISCIS
Related business
Manufacturer
Unknown
Mission
Spacecraft
Bus & Motor
Unknown
Mass
Unknown
Launch date (UTC)
1981-06-04 (45 years ago)
Launch vehicle
Unknown
Launch site
Plesetsk Missile And Space Complex (PKMTR)
Object type
Payload
Rocket body
Debris
Shape & HBR
Unknown shape, 0.1 m
Radar Cross Section
Medium (>0.1 m² and <1 m²)

Expand to show TLE details & history
Last TLE update: 15 hours ago

TLE from 15 hours ago
0 COSMOS 1275 DEB
1 13814U 81053HJ  26254.82970955  .00011869  00000-0  17534-2 0  9995
2 13814  82.9198 187.6587 0008513  94.5622 319.4080 14.75142349252029
Epoch: 2026-09-11T19:54Z
TLE epoch observation values (Epoch: 2026-09-11T19:54:46.905Z)
Latitude
53.41407°
Longitude
-92.30425°
Altitude
648.945 km
Speed
7.541 km/s
True Right ascension
13h 08m 57s
True Declination
53° 14' 48"
Sunlit
Object was in daylight at epoch
Visualization orbit readout
Latitude
Unknown
Longitude
Unknown
Altitude
Unknown
Speed
Unknown
Apparent Right ascension
Unknown
Apparent Declination
Unknown
Sunlit
N/A
Visualization observer readout
Local Sidereal Time
02:53:55
Azimuth
Unknown
Elevation
Unknown
Doppler factor
Unknown
Orbital elements
Apogee altitude
647.688 km
Perigee altitude
635.736 km
Semi-major axis
7,019.849 km
Eccentricity
0.00085
Inclination
82.9198°
RAAN
187.6587°
Arg. of periapsis
94.5622°
True anomaly
319.34447°
Mean anomaly
319.408°
Eccentric anomaly
319.37624°
Mean motion
3.69021 °/min
Orbital period
97.56 mins
BSTAR
0.0017534
Loading maneuver chart data...
Computing Atmospheric mass density...
Loading historical data...
Loading historical data...
Loading historical data...
Loading historical data...
Loading historical data...
Loading historical data...
Loading historical data...

Documentation

Showing up to 5 results
|